Location: ??
(35.4627°N, 139.3695°E)
Time: 14:14:55
(UTC+00:00)

Cosmos 1766 Rocket - Pass Details

Date: 25 November 2020
Orbit: 604 x 633 km, 82.5° (Epoch: 20 January)

Event Time Altitude Azimuth Distance (km) Brightness Sun altitude
Rises 19:49:08 0° 190° (S) 2,906 7.0 -20.0°
Reaches altitude 10° 19:51:22 10° 192° (SSW) 2,005 6.2 -19.5°
Maximum altitude 19:55:48 72° 276° (W) 668 3.5 -18.7°
Drops below altitude 10° 20:00:17 10° 2° (N) 2,022 6.1 -17.8°
Sets 20:02:33 0° 5° (N) 2,933 6.9 -17.3°
